EW5040 Weather Reports


time (UTC)temp
F
wind
direction
speed
knots
gust
knots
rain 1hr
in
rain 24hr
in
rain mn
in
humidity
%
barometer
mb
20260504001522 50 242 4.3 13.0 0.00 0.00 0.00 69 1009.2
20260504000037 49 210 4.3 13.9 0.00 0.00 0.00 70 1009.3
20260503234518 49 229 5.2 12.2 0.00 0.00 0.00 71 1009.4
20260503233020 49 269 4.3 9.6 0.00 0.00 0.00 73 1009.6
20260503231516 49 221 3.5 9.6 0.00 0.00 0.00 73 1009.5
20260503230016 49 236 2.6 10.4 0.00 0.00 0.00 73 1009.7
20260503224514 50 236 3.5 10.4 0.00 0.00 0.00 72 1009.9
20260503223015 50 246 4.3 11.3 0.00 0.00 0.00 73 1010.0
20260503221513 49 243 7.0 14.8 0.00 0.00 0.00 73 1010.1
20260503220019 49 238 6.1 15.6 0.00 0.00 0.00 73 1010.1
20260503214522 49 200 5.2 17.4 0.00 0.00 0.00 72 1010.2
20260503213011 50 196 7.0 20.0 0.00 0.00 0.00 70 1009.8
20260503211512 50 232 9.6 20.9 0.00 0.00 0.00 69 1009.6
20260503210024 51 218 7.0 20.0 0.00 0.00 0.00 69 1009.7
20260503204510 50 253 6.1 17.4 0.00 0.00 0.00 69 1009.9
20260503203008 50 200 4.3 15.6 0.00 0.00 0.00 70 1009.8
20260503201503 50 248 6.1 14.8 0.00 0.00 0.00 68 1010.2
20260503200002 51 207 3.5 14.8 0.00 0.00 0.00 66 1010.2
20260503194501 53 241 5.2 12.2 0.00 0.00 0.00 65 1010.5
20260503193100 53 253 6.1 17.4 0.00 0.00 0.00 63 1010.7
20260503191603 52 223 6.1 19.1 0.00 0.00 0.00 62 1011.0
20260503184557 53 213 7.0 21.7 0.00 0.00 0.00 60 1011.4
20260503183104 53 274 7.0 16.5 0.00 0.00 0.00 59 1011.5
20260503181552 52 254 6.1 21.7 0.00 0.00 0.00 55 1011.7
20260503174547 53 222 6.1 13.9 0.00 0.00 0.00 56 1012.0
20260503173124 52 217 6.1 13.9 0.00 0.00 0.00 57 1012.4
20260503171546 50 225 6.1 13.9 0.00 0.00 0.00 58 1012.7
20260503130113 46 227 4.3 15.6 0.00 0.00 0.00 80 1014.1
20260503081505 30 211 0.0 0.0 0.00 0.00 0.00 92 1014.5
20260503071602 30 211 0.0 0.9 0.00 0.00 0.00 92 1014.5
20260503054552 31 198 0.0 0.0 0.00 0.00 0.00 90 1014.8
20260503053050 32 198 0.0 0.0 0.00 0.00 0.00 89 1014.7
20260503051547 32 198 0.0 0.0 0.00 0.00 0.00 89 1014.9
20260503050045 33 198 0.0 0.9 0.00 0.00 0.00 88 1015.0
20260503044544 33 198 0.0 0.9 0.00 0.00 0.00 87 1015.0
20260503043039 34 198 0.0 0.0 0.00 0.00 0.00 86 1015.2
20260503041540 35 198 0.0 0.0 0.00 0.00 0.00 85 1015.2
20260503040033 35 198 0.0 0.0 0.00 0.00 0.00 84 1015.2
20260503034535 37 198 0.0 0.0 0.00 0.00 0.00 84 1015.2
20260503033032 37 198 0.0 0.0 0.00 0.00 0.00 83 1015.3
20260503031534 38 198 0.0 0.0 0.00 0.00 0.00 84 1015.4
20260503030033 39 198 0.0 0.0 0.00 0.00 0.00 85 1015.3
20260503024531 39 198 0.0 0.0 0.00 0.00 0.00 84 1015.4
20260503023033 40 198 0.0 0.0 0.00 0.00 0.00 84 1015.6
20260503021529 40 198 0.0 0.0 0.00 0.00 0.00 82 1015.6
20260503020028 40 198 0.0 0.0 0.00 0.00 0.00 81 1015.6
20260503014526 40 198 0.0 0.0 0.00 0.00 0.00 80 1015.7
20260503013034 41 198 0.0 0.9 0.00 0.00 0.00 79 1015.7
20260503011529 41 198 0.0 0.9 0.00 0.00 0.00 78 1015.7
20260503010024 41 198 0.0 2.6 0.00 0.00 0.00 78 1015.6
20260503004523 41 244 0.9 2.6 0.00 0.00 0.00 77 1015.5
20260503003023 41 247 0.0 3.5 0.00 0.00 0.00 76 1015.4